Regional Weather Roundup
Issued by NWS Wilmington, NC

Home | Current Version | Previous Version | Text Only | Print | Product List | Glossary On
Versions: 1 2 3 4 5 6 7 8 9 10 11 12 13 14 15 16 17 18 19 20 21 22 23 24 25 26 27 28 29 30 31 32 33 34 35 36 37 38 39 40 41 42 43 44 45 46 47 48 49 50
000
ASUS42 KILM 300612
RWRILM
RWRILM
REGIONAL HOURLY WEATHER ROUNDUP
NATIONAL WEATHER SERVICE WILMINGTON NC
200 AM EDT THU MAR 30 2017

NOTE: "FAIR" INDICATES FEW OR NO CLOUDS BELOW 12,000 FEET WITH NO
SIGNIFICANT WEATHER AND/OR OBSTRUCTIONS TO VISIBILITY.

...............WFO WILMINGTON COUNTY WARNING AREA...............

......COASTAL NC AND SC COUNTIES......

CITY           SKY/WX    TMP DP  RH WIND       PRES   REMARKS
WILMINGTON     CLEAR     59  55  87 E8        30.12S
N MYRTLE BEACH CLEAR     62  58  86 E10G16    30.10F
MYRTLE BEACH   CLEAR     62  58  86 E10       30.11S

......INLAND NC AND SC COUNTIES.......

CITY           SKY/WX    TMP DP  RH WIND       PRES   REMARKS
LUMBERTON      CLEAR     58  55  90 SE6       30.10F
ELIZABETHTOWN  CLEAR     56  55  95 E3        30.12S
WHITEVILLE     CLEAR     59  55  88 E6        30.10F
FLORENCE       CLEAR     58  55  90 SE5       30.10S
DARLINGTON     CLEAR     59  54  83 SE6       30.10S
KINGSTREE      FAIR      59  55  88 E3        30.08F
HARTSVILLE     FAIR      57  54  88 E6        30.09S
BENNETTSVILLE  FAIR      61  55  82 SE5       30.09F
CONWAY         FAIR      61  55  82 E3        30.10S
GEORGETOWN     FAIR      63  61  94 E7        30.09F
MARION         FAIR      57  54  88 E3        30.10S

....................REST OF NORTH CAROLINA......................

.........EASTERN NC.........

CITY           SKY/WX    TMP DP  RH WIND       PRES   REMARKS
CAPE HATTERAS  CLEAR     53  46  77 NE9       30.14F
JACKSONVILLE   NOT AVBL
MOREHEAD CITY  CLEAR     54  50  86 NE6       30.13F
KENANSVILLE    CLEAR     52  50  93 CALM      30.14S
NEW BERN       CLEAR     52  49  89 E7        30.15F
ELIZABETH CITY CLEAR     47  45  93 E5        30.16F

.........CENTRAL NC.........

CITY           SKY/WX    TMP DP  RH WIND       PRES   REMARKS
RALEIGH DURHAM MOCLDY    58  52  80 SE10G17   30.13R
ROCKY MOUNT    CLEAR     52  50  93 CALM      30.15S
ROANOKE RAPIDS NOT AVBL
FAYETTEVILLE   CLEAR     58  54  86 SE10      30.12R
HOFFMAN        CLEAR     59  54  85 SE8       30.10R

.........WESTERN NC.........

CITY           SKY/WX    TMP DP  RH WIND       PRES   REMARKS
CHARLOTTE      CLEAR     63  54  72 SE14      30.07R
GREENSBORO     PTCLDY    60  53  77 SE7       30.09R
HICKORY        NOT AVBL
BOONE          NOT AVBL
ASHEVILLE      NOT AVBL

.....................REST OF SOUTH CAROLINA.....................

.........EASTERN SC.........

CITY           SKY/WX    TMP DP  RH WIND       PRES   REMARKS
CHARLESTON     MOCLDY    68  62  81 E12       30.06F
BEAUFORT MCAS  MOCLDY    68  67  96 E7        30.04F
HILTON HEAD    MOCLDY    66  66 100 NE5       30.05F FOG

.........CENTRAL SC.........

CITY           SKY/WX    TMP DP  RH WIND       PRES   REMARKS
COLUMBIA       CLOUDY    66  60  81 SE9       30.05S
ORANGEBURG     CLOUDY    66  62  87 SE7       30.06F
SUMTER SHAW    MOCLDY    61  56  84 E7        30.05F

.........WESTERN SC.........

CITY           SKY/WX    TMP DP  RH WIND       PRES   REMARKS
GREENVILLE     NOT AVBL
ROCK HILL      CLEAR     63  55  75 SE6       30.06S
ANDERSON       CLEAR     64  50  60 E6        30.00F
CLEMSON        NOT AVBL
GREENWOOD      CLEAR     63  50  62 SE6       30.03S


...................COASTAL AND OFFSHORE REPORTS..................

................LOCAL PIERS AND NC RESERVE................


STATION/POSITION TIME  SKY/WX   TEMP    WIND        PRES    VSBY
                                AIR SEA DIR/SP/G
                 (UTC)          (F)     (DEG/KT/KT) (MB)    (MI)
JOHNY MRCER PIER 0548            60 61   80/ 12/ 14 1018.9F
NC RESRV MASNBRO 0445            59     100/  4     1019.0
OCEAN CREST PIER NOT AVBL
SPRINGMAID  PIER 0548                               1018.5F


................COASTAL AND OFFSHORE BUOYS................


STATION/POSITION TIME  SKY/WX   TEMP    WIND        PRES    VSBY
                                AIR SEA DIR/SP/G
                 (UTC)          (F)     (DEG/KT/KT) (MB)    (MI)
DIMNDSHOAL 41025 0550            61 73   50/ 16/ 21 1020.1F
WVE H/P(F/S)=  7/ 9 SWL H/P/D(F/S/D)=  5/ 80/ 9

CAPE LOOKOUT     0600            62      70/ 18/ 20 1019.6F
ONSLOW BAY 41036 NOT AVBL
ONSLOW BAY 41064 0508            62      80/ 14/ 19 1020.3F
ONSLOW BAY 41159 0543               63                N/A
WVE H/P(F/S)=  6/10 SWL H/P/D(F/S/D)=  2/120/11

MASNBO INL 41110 0559               59                N/A
WVE H/P(F/S)=  4/10 SWL H/P/D(F/S/D)=  2/120/11

WILM HARBR 41108 0547               60                N/A
WVE H/P(F/S)=  3/ 6 SWL H/P/D(F/S/D)=  2/140/11

27SE WRITB 41037 0508            65 73  100/ 16/ 23 1019.0F
FRYING PAN 41013 0550            69 73   80/ 16/ 19 1019.0F
WVE H/P(F/S)=  6/10 SWL H/P/D(F/S/D)=  3/120/10

SUNST NRSH 41024 NOT AVBL
CAPRS NRSH 41029 NOT AVBL
EDISTO     41004 0550            70 69   80/ 16/ 19 1017.2S
WVE H/P(F/S)=  6/10 SWL H/P/D(F/S/D)=  3/110/10



..........OFFSHORE BUOYS BEYOND 100 NM OFFSHORE...........
.....IN A TRIANGLE---HAT TO BERMUDA TO BAHAMAS TO HAT.....


STATION/POSITION TIME  SKY/WX   TEMP    WIND        PRES    VSBY
                                AIR SEA DIR/SP/G
                 (UTC)          (F)     (DEG/KT/KT) (MB)    (MI)
150E HAT   41001 NOT AVBL
W BERMUDA  41048 0550            67 68  360/ 17/ 21 1015.3R
WVE H/P(F/S)=  6/10 SWL H/P/D(F/S/D)=  5/ 80/10

ATLANTIC S 41049 0550            69 72  320/ 14/ 17 1013.6F
WVE H/P(F/S)= 10/12 SWL H/P/D(F/S/D)= 10/ 20/12

E BAHAMAS  41046 NOT AVBL
NE BAHAMAS 41047 0550            71 72  290/  8/ 10 1016.0F
WVE H/P(F/S)=  4/ 9 SWL H/P/D(F/S/D)=  3/ 70/ 9

120E CANVRL41010 NOT AVBL

END



USA.gov is the U.S. government's official web portal to all federal, state and local government web resources and services.